EW7157 Weather Reports


Display with metric or nautical units.
time (UTC)temp
F
wind
direction
speed
MPH
gust
MPH
rain 1hr
in
rain 24hr
in
rain mn
in
humidity
%
barometer
mb
20200402073230 34 45 0.0 0.0 0.00 0.00 0.00 74 0.9
20200402072329 34 45 0.0 0.0 0.00 0.00 0.00 72 0.9
20200402071331 34 45 0.0 0.0 0.00 0.00 0.00 72 0.9
20200402065431 34 45 0.0 0.0 0.00 0.00 0.00 72 0.9
20200402064432 34 45 0.0 0.0 0.00 0.00 0.00 72 0.9
20200402063529 34 45 0.0 0.0 0.00 0.00 0.00 71 0.9
20200402062532 34 45 0.0 0.0 0.00 0.00 0.00 70 0.9
20200402061531 35 45 0.0 0.0 0.00 0.00 0.00 70 0.9
20200402060631 35 45 0.0 0.0 0.00 0.00 0.00 69 0.9
20200402055630 35 45 0.0 0.0 0.00 0.00 0.00 68 0.9
20200402054731 36 45 0.0 0.0 0.00 0.00 0.00 68 0.9
20200402053730 36 45 0.0 0.0 0.00 0.00 0.00 68 0.9
20200402052730 36 45 0.0 0.0 0.00 0.00 0.00 66 0.9
20200402051830 36 45 0.0 0.0 0.00 0.00 0.00 65 0.9
20200402050929 36 45 0.0 0.0 0.00 0.00 0.00 64 0.9
20200402045930 37 45 0.0 0.0 0.00 0.00 0.00 63 0.9
20200402044930 37 45 0.0 0.0 0.00 0.00 0.00 62 0.9
20200402044030 38 45 0.0 0.0 0.00 0.00 0.00 62 0.9
20200402043030 38 45 0.0 0.0 0.00 0.00 0.00 62 0.9
20200402042129 38 67 0.0 0.0 0.00 0.00 0.00 60 0.9
20200402041131 39 67 0.0 0.0 0.00 0.00 0.00 60 0.9
20200402040129 39 45 0.0 0.0 0.00 0.00 0.00 60 0.9
20200402035217 39 90 0.0 0.0 0.00 0.00 0.00 59 0.9
20200402034315 40 360 0.0 0.0 0.00 0.00 0.00 56 0.9
20200402033317 40 90 0.0 0.0 0.00 0.00 0.00 56 0.9
20200402032317 41 53 0.0 0.0 0.00 0.00 0.00 55 0.9
20200402031415 41 90 0.0 0.0 0.00 0.00 0.00 54 0.9
20200402030417 41 45 0.0 0.0 0.00 0.00 0.00 54 0.9
20200402025516 42 56 1.0 0.0 0.00 0.00 0.00 52 0.9
20200402024615 42 337 0.0 0.0 0.00 0.00 0.00 52 0.9
20200402023714 42 360 0.0 0.0 0.00 0.00 0.00 53 0.9
20200402022715 42 45 0.0 0.0 0.00 0.00 0.00 55 0.9
20200402021815 43 360 0.0 0.0 0.00 0.00 0.00 54 0.9
20200402020816 43 90 0.0 0.0 0.00 0.00 0.00 54 0.9
20200402015816 43 51 1.0 0.0 0.00 0.00 0.00 56 0.9
20200402014816 43 45 0.0 0.0 0.00 0.00 0.00 56 0.9
20200402013817 43 45 0.0 0.0 0.00 0.00 0.00 58 0.9
20200402012915 44 45 0.0 0.0 0.00 0.00 0.00 58 0.9
20200402012015 44 45 0.0 0.0 0.00 0.00 0.00 59 0.9
20200402011015 44 22 0.0 0.0 0.00 0.00 0.00 57 0.9
20200402010016 45 22 0.0 0.0 0.00 0.00 0.00 57 0.9
20200402005118 45 22 0.0 0.0 0.00 0.00 0.00 55 0.9
20200402004117 46 22 0.0 0.0 0.00 0.00 0.00 54 0.9
20200402003117 46 22 0.0 0.0 0.00 0.00 0.00 54 0.9
20200402002118 46 67 0.0 0.0 0.00 0.00 0.00 54 0.9
20200402001114 47 45 0.0 0.0 0.00 0.00 0.00 54 0.9
20200402000117 47 45 0.0 0.0 0.00 0.00 0.00 53 0.9
20200401235114 48 45 0.0 0.0 0.00 0.00 0.00 51 0.9
20200401234115 48 360 0.0 0.0 0.00 0.00 0.00 50 0.9
20200401233215 49 45 1.0 0.0 0.00 0.00 0.00 51 0.9
20200401232218 49 90 0.0 0.0 0.00 0.00 0.00 48 0.9
20200401231216 50 45 0.0 0.0 0.00 0.00 0.00 48 0.9
20200401230315 50 45 0.0 0.0 0.00 0.00 0.00 48 0.9
20200401225414 51 64 3.0 0.0 0.00 0.00 0.00 47 0.9
20200401224415 51 48 2.0 0.0 0.00 0.00 0.00 46 0.9
20200401223515 52 53 2.0 0.0 0.00 0.00 0.00 45 0.9
20200401222516 52 45 1.0 0.0 0.00 0.00 0.00 45 0.9
20200401221516 52 87 2.0 0.0 0.00 0.00 0.00 44 0.9
20200401220614 52 327 1.0 0.0 0.00 0.00 0.00 44 0.9
20200401215713 52 73 2.0 0.0 0.00 0.00 0.00 44 0.9
20200401214716 52 45 0.0 0.0 0.00 0.00 0.00 45 0.9
20200401213715 52 47 1.0 0.0 0.00 0.00 0.00 45 0.9
20200401212715 51 90 0.0 0.0 0.00 0.00 0.00 45 0.9
20200401211716 51 56 0.0 0.0 0.00 0.00 0.00 45 0.9
20200401210814 52 89 2.0 0.0 0.00 0.00 0.00 45 0.9
20200401205914 53 15 0.0 0.0 0.00 0.00 0.00 45 0.9
20200401204916 54 59 2.0 0.0 0.00 0.00 0.00 46 0.9
20200401204016 52 45 0.0 0.0 0.00 0.00 0.00 48 0.9
20200401203016 52 45 0.0 0.0 0.00 0.00 0.00 48 0.9
20200401202018 52 90 0.0 0.0 0.00 0.00 0.00 47 0.9
20200401201017 52 25 1.0 0.0 0.00 0.00 0.00 47 0.9
20200401200117 52 90 1.0 0.0 0.00 0.00 0.00 46 0.9
20200401195117 53 63 3.0 0.0 0.00 0.00 0.00 46 0.9
20200401194215 52 352 0.0 0.0 0.00 0.00 0.00 46 0.9
20200401193316 52 122 2.0 0.0 0.00 0.00 0.00 45 0.9
20200401192316 53 74 2.0 0.0 0.00 0.00 0.00 44 0.9
20200401191415 54 66 2.0 0.0 0.00 0.00 0.00 43 0.9
20200401190415 55 61 2.0 0.0 0.00 0.00 0.00 43 0.9
20200401185515 55 8 0.0 0.0 0.00 0.00 0.00 44 0.9
20200401184517 53 41 3.0 0.0 0.00 0.00 0.00 45 0.9
20200401183614 52 90 3.0 0.0 0.00 0.00 0.00 45 0.9
20200401182617 52 76 3.0 0.0 0.00 0.00 0.00 46 0.9
20200401181616 52 90 1.0 0.0 0.00 0.00 0.00 45 0.9
20200401180617 52 20 1.0 0.0 0.00 0.00 0.00 48 0.9
20200401175616 51 360 1.0 0.0 0.00 0.00 0.00 50 0.9
20200401174714 50 89 2.0 0.0 0.00 0.00 0.00 49 0.9
20200401173813 50 360 2.0 0.0 0.00 0.00 0.00 49 0.9
20200401172819 51 360 2.0 0.0 0.00 0.00 0.00 48 0.9
20200401171916 51 90 2.0 0.0 0.00 0.00 0.00 48 0.9
20200401170916 50 43 3.0 0.0 0.00 0.00 0.00 50 0.9
20200401170014 49 81 3.0 0.0 0.00 0.00 0.00 52 0.9
20200401165116 49 42 2.0 0.0 0.00 0.00 0.00 54 0.9
20200401164117 48 24 2.0 0.0 0.00 0.00 0.00 55 0.9
20200401163116 49 53 1.0 0.0 0.00 0.00 0.00 54 0.9
20200401162117 48 11 2.0 0.0 0.00 0.00 0.00 54 0.9
20200401161116 48 44 2.0 0.0 0.00 0.00 0.00 54 0.9
20200401160115 47 65 3.0 0.0 0.00 0.00 0.00 54 0.9
20200401155116 47 44 3.0 0.0 0.00 0.00 0.00 56 0.9
20200401154215 46 327 0.0 0.0 0.00 0.00 0.00 56 0.9
20200401153218 46 79 5.0 0.0 0.00 0.00 0.00 56 0.9
20200401152315 46 74 3.0 0.0 0.00 0.00 0.00 57 0.9
20200401151415 47 80 2.0 0.0 0.00 0.00 0.00 57 0.9
20200401150514 45 32 2.0 0.0 0.00 0.01 0.00 60 0.9
20200401145516 44 67 2.0 0.0 0.00 0.01 0.00 62 0.9
20200401144516 44 27 2.0 0.0 0.00 0.01 0.00 63 1.0
20200401143615 44 24 3.0 0.0 0.00 0.01 0.00 64 0.9
20200401142616 43 56 3.0 0.0 0.00 0.01 0.00 64 1.0
20200401141715 43 65 2.0 0.0 0.00 0.01 0.00 64 1.0
20200401140717 43 46 3.0 0.0 0.00 0.01 0.00 65 1.0
20200401135815 43 60 2.0 0.0 0.00 0.01 0.00 66 1.0
20200401134816 43 61 2.0 0.0 0.00 0.01 0.00 67 1.0
20200401133816 42 90 3.0 0.0 0.00 0.01 0.00 69 0.9
20200401132918 42 57 4.0 0.0 0.00 0.01 0.00 70 1.0
20200401131916 41 71 3.0 0.0 0.00 0.01 0.00 72 0.9
20200401131014 41 90 2.0 0.0 0.00 0.01 0.00 74 0.9
20200401130114 40 40 2.0 0.0 0.00 0.01 0.00 76 0.9
20200401125115 40 36 2.0 0.0 0.00 0.01 0.00 77 0.9
20200401124116 40 90 2.0 0.0 0.00 0.01 0.00 80 0.9
20200401123214 39 72 1.0 0.0 0.00 0.01 0.00 80 0.9
20200401122215 39 45 1.0 0.0 0.00 0.01 0.00 82 0.9
20200401121214 38 49 1.0 0.0 0.00 0.01 0.00 84 0.9
20200401120215 38 45 1.0 0.0 0.00 0.01 0.00 85 0.9
20200401115214 37 70 1.0 0.0 0.00 0.01 0.00 85 0.9
20200401114314 38 45 0.0 0.0 0.00 0.01 0.00 86 0.9
20200401113415 38 45 0.0 0.0 0.00 0.01 0.00 87 0.9
20200401112514 38 45 2.0 0.0 0.00 0.01 0.00 87 0.9
20200401111517 38 45 0.0 0.0 0.00 0.01 0.00 87 0.9
20200401110615 38 45 1.0 0.0 0.00 0.01 0.00 88 0.9
20200401105615 38 90 1.0 0.0 0.00 0.01 0.00 89 0.9
20200401104714 38 36 2.0 0.0 0.00 0.01 0.00 89 0.9
20200401103716 38 45 0.0 0.0 0.00 0.01 0.00 89 0.9
20200401102815 37 54 1.0 0.0 0.00 0.01 0.00 90 0.9
20200401101814 37 45 0.0 0.0 0.00 0.02 0.00 91 0.9
20200401100815 37 45 0.0 0.0 0.00 0.02 0.00 91 0.9
20200401095914 37 45 0.0 0.0 0.00 0.02 0.00 90 0.9
20200401094915 37 45 0.0 0.0 0.00 0.02 0.00 89 0.9
20200401093916 37 45 0.0 0.0 0.00 0.02 0.00 89 0.9
20200401093014 38 45 0.0 0.0 0.00 0.02 0.00 88 0.9
20200401092016 38 45 0.0 0.0 0.00 0.02 0.00 88 0.9
20200401091016 38 45 0.0 0.0 0.00 0.02 0.00 86 0.9
20200401090014 38 45 0.0 0.0 0.00 0.02 0.00 87 0.9
20200401085115 38 40 2.0 0.0 0.00 0.02 0.00 86 0.9
20200401084214 38 45 0.0 0.0 0.00 0.02 0.00 86 0.9
20200401083314 38 22 0.0 0.0 0.00 0.02 0.00 85 0.9
20200401082316 39 53 2.0 0.0 0.00 0.02 0.00 86 0.9
20200401081315 39 50 2.0 0.0 0.00 0.02 0.00 87 0.9
20200401080315 39 76 0.0 0.0 0.00 0.02 0.00 88 0.9
20200401075415 39 67 0.0 0.0 0.00 0.02 0.00 88 0.9
20200401074415 39 67 0.0 0.0 0.00 0.02 0.00 87 0.9